[[{"header":{"parameterUnit":"m.s-1","parameterCategory":1,"la1":30.2991,"la2":30.254,"lo1":-89.0895,"lo2":-89.0444,"dy":0.0017,"dx":0.0017,"nx":28,"ny":28,"refTime":"2024-03-18T09:00:00:Z","depth":0,"parameterNumber":2,"parameterNumberName":"U-component_of_WINDS"},"data":[0,0,0,0,0,0,0,0,0,0,0,0,0,0,0,0,0,0,0,0,0,0,0,0,0,0,0,0,0,0,0,0,0,0,0,0,0,0,0,0,0,0,0,0,0,0,0,0,0,0,0,0,0,0,0,0,0,0,2.0697,2.0697,0,2.0744,2.0745,2.0745,2.0747,2.0747,2.0746,2.0746,2.0794,2.0796,2.0797,0,0,0,0,0,0,0,0,0,0,0,0,0,2.0609,2.061,2.0697,2.0697,2.0698,2.0744,2.0745,2.0745,2.0748,2.0747,2.0746,2.0746,2.0793,2.0795,2.0797,0,0,0,0,0,0,0,0,0,0,0,0,0,2.0651,2.0611,2.0697,2.0705,2.0706,2.0744,2.0745,2.0746,2.0748,2.0747,2.0746,2.0745,2.0792,2.0795,2.0798,2.0831,0,0,2.0806,2.0807,0,0,0,0,0,0,0,0,2.0648,2.0654,2.0703,2.0704,2.0706,2.0739,2.0731,2.0774,2.0748,2.0732,2.0746,2.0745,2.0776,2.078,2.0791,2.0833,2.0835,2.0806,2.0808,2.0809,2.081,0,0,0,0,0,0,0,2.0645,2.0652,2.0716,2.0704,2.0705,2.0706,2.0711,2.0739,2.0758,2.0733,2.0733,2.0739,2.0777,2.0788,2.0792,2.0836,2.0806,2.0809,2.081,2.0811,2.0909,2.091,0,0,0,0,0,0,2.0641,2.0649,2.0714,2.0717,2.0674,2.0708,2.0714,2.0729,2.0758,2.0761,2.074,2.0739,2.0784,2.0789,2.0794,2.0835,2.0809,2.0811,2.0813,2.0908,2.091,2.0911,0,0,0,0,0,0,2.0639,2.0647,2.0712,2.0683,2.0692,2.0711,2.0728,2.0731,2.0742,2.0763,2.0766,2.0748,2.0784,2.079,2.0822,2.0837,2.0813,2.0815,2.0907,2.0909,2.091,2.0918,0,0,0,0,0,0,2.0636,2.0646,2.0658,2.0684,2.0693,2.0739,2.0729,2.0732,2.0747,2.0746,2.0771,2.0775,2.0783,2.0818,2.0825,2.084,2.0817,2.0906,2.0908,2.091,2.0916,2.0919,2.0922,0,0,0,0,0,2.0633,2.0658,2.0659,2.0667,2.0709,2.074,2.0746,2.0755,2.0748,2.0761,2.0774,2.0774,2.0834,2.0821,2.0829,2.0845,2.0905,2.0907,2.091,2.0915,2.0919,2.0922,0,0,0,0,0,0,2.0634,2.0662,2.0663,2.0697,2.0716,2.0741,2.0757,2.0759,2.0781,2.0779,2.079,2.0796,2.0828,2.084,2.0825,2.088,2.0869,2.0873,2.087,2.0874,2.0877,2.0873,2.0819,0,0,0,0,0,2.0638,2.0661,2.0684,2.0712,2.0721,2.0738,2.0751,2.0757,2.0778,2.0786,2.0802,2.0822,2.0845,2.086,2.0883,2.0918,2.0924,2.0933,2.0936,2.0939,2.0941,2.0962,2.0966,2.0918,2.0918,2.0918,0,0,2.0646,2.0665,2.0678,2.0712,2.0728,2.0751,2.0744,2.0769,2.0787,2.079,2.0821,2.0834,2.0857,2.0891,2.0906,2.0902,2.0956,2.0941,2.0943,2.0945,2.0965,2.0969,2.0973,2.092,2.0919,2.0919,0,0,2.0674,2.069,2.0715,2.0731,2.0756,2.0767,2.0773,2.0797,2.0806,2.0838,2.0841,2.0862,2.0902,2.0919,2.0933,2.0969,2.0969,2.0976,2.099,2.101,2.1014,2.1017,2.103,2.1034,2.0979,2.0979,2.0979,0,2.0681,2.0717,2.0728,2.0753,2.0768,2.0773,2.0798,2.0814,2.0844,2.0855,2.0849,2.0901,2.0916,2.0955,2.0964,2.0975,2.0982,2.0972,2.1012,2.1016,2.1019,2.1032,2.1036,2.0979,2.0979,2.0979,2.0979,0,2.0725,2.0749,2.0767,2.0797,2.0814,2.0839,2.0855,2.0871,2.0876,2.0888,2.0921,2.094,2.0968,2.0977,2.0982,2.1017,2.1013,2.101,2.0999,2.1024,2.1036,2.1041,2.098,2.098,2.098,2.098,0,0,2.0752,2.0789,2.0795,2.0809,2.0837,2.0857,2.0883,2.091,2.0924,2.0945,2.0968,2.1003,2.1,2.1016,2.1023,2.104,2.1068,2.1035,2.1036,2.104,2.1108,2.111,2.1115,2.1069,2.107,2.1071,2.1106,0,2.0782,2.0829,2.084,2.088,2.0903,2.0909,2.0932,2.0952,2.0964,2.0986,2.1,2.1024,2.1019,2.1029,2.1046,2.1061,2.1082,2.1059,2.109,2.1091,2.1083,2.1121,2.1123,2.1155,2.1111,2.1112,2.1112,0,2.0823,2.0846,2.0889,2.0915,2.0925,2.0945,2.0972,2.0993,2.1016,2.1024,2.1042,2.1048,2.1076,2.1065,2.1104,2.1088,2.1102,2.1112,2.1113,2.1116,2.1102,2.1125,2.1166,2.117,2.112,2.1119,2.1119,0,2.0839,2.0881,2.0911,2.0923,2.0955,2.0969,2.0983,2.1005,2.1021,2.1045,2.1055,2.1082,2.1096,2.1116,2.1129,2.112,2.1168,2.1158,2.1175,2.1175,2.1184,2.1183,2.1227,2.1194,2.1194,2.1194,2.1194,0,2.0871,2.0897,2.0919,2.0938,2.0967,2.0981,2.1009,2.1023,2.1044,2.1066,2.1073,2.1093,2.1109,2.1133,2.1143,2.1174,2.1181,2.1188,2.119,2.1187,2.1186,2.1195,2.1193,2.1195,2.1195,2.1194,2.1194,0,2.0893,2.0909,2.0943,2.097,2.0978,2.0998,2.1022,2.1041,2.1054,2.1082,2.1089,2.111,2.1138,2.1153,2.1188,2.1195,2.123,2.1231,2.1222,2.1223,2.1239,2.1237,2.129,2.1298,2.126,2.126,2.1261,0,2.0912,2.0932,2.0962,2.0977,2.0991,2.1016,2.1033,2.1048,2.1065,2.1094,2.1109,2.1138,2.1161,2.1205,2.1223,2.125,2.1252,2.1269,2.1256,2.1252,2.1252,2.125,2.1253,2.1271,2.1271,2.1271,2.1272,0,2.0944,2.0951,2.0975,2.1002,2.1022,2.1044,2.1066,2.1078,2.1097,2.1116,2.1145,2.1163,2.1199,2.1227,2.1256,2.127,2.1274,2.1276,2.1281,2.1277,2.1271,2.1275,2.1227,2.1274,2.1274,2.1274,2.1274,2.1273,2.0965,2.0983,2.1007,2.1034,2.1052,2.1073,2.1092,2.1108,2.1133,2.1163,2.1171,2.1201,2.1225,2.1264,2.128,2.1304,2.1301,2.1309,2.1311,2.1312,2.1313,2.1268,2.131,2.131,2.131,2.131,2.131,0,2.0997,2.1013,2.1038,2.1069,2.109,2.1093,2.1117,2.1135,2.1162,2.1184,2.1207,2.1241,2.1269,2.129,2.1318,2.1334,2.1336,2.1341,2.1339,2.1343,2.1314,2.1306,2.1338,2.1338,2.1338,2.1338,2.1338,2.1338,2.1016,2.1048,2.1058,2.1099,2.1115,2.1145,2.1159,2.1178,2.1197,2.1234,2.1257,2.1271,2.1293,2.1324,2.135,2.1355,2.1365,2.137,2.1375,2.1348,2.1345,2.1342,2.1335,2.1372,2.1372,2.1402,2.1402,2.1402]},{"header":{"parameterUnit":"m.s-1","parameterCategory":1,"la1":30.2991,"la2":30.254,"lo1":-89.0895,"lo2":-89.0444,"dy":0.0017,"dx":0.0017,"nx":28,"ny":28,"refTime":"2024-03-18T09:00:00:Z","depth":0,"parameterNumber":3,"parameterNumberName":"V-component_of_WINDS"},"data":[0,0,0,0,0,0,0,0,0,0,0,0,0,0,0,0,0,0,0,0,0,0,0,0,0,0,0,0,0,0,0,0,0,0,0,0,0,0,0,0,0,0,0,0,0,0,0,0,0,0,0,0,0,0,0,0,0,0,-8.3033,-8.3035,0,-8.3215,-8.3217,-8.3219,-8.3166,-8.3162,-8.3159,-8.3155,-8.3336,-8.3344,-8.3353,0,0,0,0,0,0,0,0,0,0,0,0,0,-8.2633,-8.2641,-8.3033,-8.3035,-8.3037,-8.3215,-8.3217,-8.322,-8.3167,-8.3162,-8.3158,-8.3153,-8.3334,-8.3343,-8.3353,0,0,0,0,0,0,0,0,0,0,0,0,0,-8.281,-8.2643,-8.3032,-8.3032,-8.3034,-8.3215,-8.3218,-8.3221,-8.3168,-8.3162,-8.3156,-8.3151,-8.333,-8.3342,-8.3355,-8.3545,0,0,-8.3393,-8.3398,0,0,0,0,0,0,0,0,-8.28,-8.2825,-8.303,-8.3033,-8.3035,-8.3162,-8.3143,-8.3329,-8.3169,-8.3117,-8.3155,-8.3148,-8.3283,-8.3299,-8.3345,-8.3553,-8.3561,-8.3394,-8.3402,-8.3407,-8.3411,0,0,0,0,0,0,0,-8.2788,-8.2817,-8.3105,-8.3033,-8.3036,-8.3022,-8.304,-8.3178,-8.3229,-8.3121,-8.3118,-8.314,-8.3283,-8.3333,-8.3349,-8.3564,-8.3394,-8.3405,-8.3413,-8.3417,-8.3937,-8.3943,0,0,0,0,0,0,-8.2775,-8.2807,-8.3099,-8.311,-8.2902,-8.3033,-8.3055,-8.3127,-8.3227,-8.3237,-8.3145,-8.3137,-8.3315,-8.3334,-8.3355,-8.3585,-8.3407,-8.3419,-8.3426,-8.393,-8.3938,-8.3945,0,0,0,0,0,0,-8.2766,-8.2801,-8.3092,-8.2958,-8.2994,-8.3046,-8.3128,-8.3134,-8.3184,-8.3245,-8.3254,-8.3187,-8.3311,-8.3338,-8.3498,-8.359,-8.3424,-8.3436,-8.3923,-8.3933,-8.3941,-8.4045,0,0,0,0,0,0,-8.2755,-8.2799,-8.2873,-8.296,-8.3001,-8.3234,-8.3134,-8.3141,-8.3206,-8.3198,-8.3287,-8.3297,-8.3309,-8.348,-8.3511,-8.3604,-8.3445,-8.3915,-8.3927,-8.3938,-8.4033,-8.4056,-8.4076,0,0,0,0,0,-8.2741,-8.2893,-8.2877,-8.2912,-8.3095,-8.3239,-8.3262,-8.3275,-8.3214,-8.3288,-8.3327,-8.3294,-8.3575,-8.3497,-8.3531,-8.363,-8.3909,-8.3924,-8.3937,-8.4024,-8.4052,-8.4076,0,0,0,0,0,0,-8.2813,-8.2904,-8.2887,-8.3072,-8.3149,-8.323,-8.3324,-8.3304,-8.3398,-8.3386,-8.3395,-8.3415,-8.3581,-8.3621,-8.3532,-8.3819,-8.3733,-8.3755,-8.3787,-8.3814,-8.3835,-8.3822,-8.3456,0,0,0,0,0,-8.2851,-8.2962,-8.3035,-8.3191,-8.323,-8.3271,-8.3334,-8.3337,-8.3416,-8.3447,-8.3498,-8.3574,-8.368,-8.3749,-8.3849,-8.4039,-8.4057,-8.4123,-8.4144,-8.4162,-8.4181,-8.4284,-8.4314,-8.3991,-8.3991,-8.3991,0,0,-8.2929,-8.2993,-8.3062,-8.3207,-8.3267,-8.338,-8.3298,-8.3422,-8.3506,-8.3465,-8.3621,-8.3661,-8.3747,-8.3923,-8.4003,-8.3962,-8.4274,-8.418,-8.4193,-8.4203,-8.4301,-8.4332,-8.4359,-8.4001,-8.3999,-8.3998,0,0,-8.313,-8.319,-8.3327,-8.3388,-8.348,-8.3506,-8.3539,-8.3624,-8.365,-8.3807,-8.3779,-8.3878,-8.406,-8.4122,-8.4177,-8.4403,-8.4376,-8.4435,-8.4547,-8.4648,-8.4673,-8.4696,-8.4777,-8.4805,-8.4453,-8.4454,-8.4454,0,-8.3215,-8.3387,-8.3399,-8.3526,-8.359,-8.3561,-8.3699,-8.3758,-8.3877,-8.3922,-8.3874,-8.4102,-8.4157,-8.4348,-8.4403,-8.4449,-8.4486,-8.4425,-8.4669,-8.4692,-8.4713,-8.479,-8.482,-8.446,-8.446,-8.4459,-8.4458,0,-8.3488,-8.3608,-8.3707,-8.3825,-8.3901,-8.4033,-8.4063,-8.4138,-8.4134,-8.4165,-8.4324,-8.439,-8.4503,-8.4549,-8.4545,-8.4739,-8.4711,-8.4666,-8.458,-8.475,-8.4823,-8.4852,-8.447,-8.4468,-8.4466,-8.4464,0,0,-8.3739,-8.3863,-8.39,-8.3953,-8.4053,-8.4145,-8.4275,-8.4388,-8.4452,-8.4535,-8.4644,-8.4798,-8.4758,-8.4821,-8.4824,-8.4913,-8.5088,-8.4857,-8.4859,-8.4898,-8.5305,-8.5338,-8.5373,-8.507,-8.5076,-8.508,-8.5298,0,-8.3949,-8.418,-8.4195,-8.4403,-8.4514,-8.4488,-8.4601,-8.4673,-8.4705,-8.4802,-8.4836,-8.4947,-8.4885,-8.4923,-8.5009,-8.5048,-8.517,-8.5033,-8.517,-8.5175,-8.515,-8.541,-8.5446,-8.5648,-8.5326,-8.5331,-8.5335,0,-8.4225,-8.4319,-8.454,-8.4624,-8.4671,-8.4773,-8.4878,-8.4972,-8.5053,-8.507,-8.5141,-8.5132,-8.5264,-8.5173,-8.5355,-8.5261,-8.5318,-8.5346,-8.5354,-8.5367,-8.5265,-8.5431,-8.5713,-8.5744,-8.5379,-8.5376,-8.5373,0,-8.4387,-8.4568,-8.4724,-8.4771,-8.4873,-8.4945,-8.4991,-8.5067,-8.5134,-8.5225,-8.5269,-8.5373,-8.543,-8.551,-8.5529,-8.5462,-8.5711,-8.5622,-8.5728,-8.5727,-8.5781,-8.5778,-8.6077,-8.5818,-8.5817,-8.5817,-8.5816,0,-8.462,-8.4756,-8.4798,-8.4894,-8.5045,-8.506,-8.5209,-8.5249,-8.5317,-8.5419,-8.5402,-8.5497,-8.5517,-8.5616,-8.5631,-8.5779,-8.5805,-8.5821,-8.5824,-8.5823,-8.5821,-8.5861,-8.5847,-8.5825,-8.5823,-8.5821,-8.582,0,-8.4827,-8.486,-8.5028,-8.5112,-8.5137,-8.5244,-8.5315,-8.5406,-8.5436,-8.5566,-8.5597,-8.5643,-8.576,-8.5787,-8.5924,-8.5934,-8.6109,-8.6098,-8.6083,-8.6082,-8.6187,-8.6177,-8.6522,-8.6568,-8.6279,-8.6281,-8.6284,0,-8.4974,-8.5078,-8.5174,-8.5242,-8.5292,-8.5401,-8.547,-8.5488,-8.5561,-8.5662,-8.5741,-8.5855,-8.5948,-8.6134,-8.6179,-8.6284,-8.6275,-8.6389,-8.629,-8.6287,-8.6277,-8.6271,-8.6281,-8.6407,-8.641,-8.6413,-8.6415,0,-8.5231,-8.5243,-8.5344,-8.5452,-8.5536,-8.5621,-8.5702,-8.5758,-8.5787,-8.5869,-8.5989,-8.6061,-8.6202,-8.6316,-8.6421,-8.6466,-8.6446,-8.6446,-8.6476,-8.6476,-8.6464,-8.6472,-8.6134,-8.6438,-8.6435,-8.6434,-8.6432,-8.6432,-8.5412,-8.5504,-8.5586,-8.57,-8.5763,-8.584,-8.593,-8.5972,-8.6073,-8.6191,-8.6195,-8.6325,-8.6403,-8.6543,-8.6595,-8.6696,-8.666,-8.6704,-8.6715,-8.6725,-8.6735,-8.6448,-8.6715,-8.6714,-8.6713,-8.6713,-8.6713,0,-8.5669,-8.5721,-8.5825,-8.5941,-8.603,-8.6005,-8.6093,-8.6169,-8.6285,-8.636,-8.6453,-8.659,-8.67,-8.6754,-8.6863,-8.6933,-8.6927,-8.6961,-8.6956,-8.6967,-8.676,-8.6724,-8.6965,-8.6965,-8.6965,-8.6965,-8.6965,-8.6965,-8.5813,-8.5967,-8.5989,-8.6174,-8.6224,-8.6354,-8.6407,-8.6477,-8.6537,-8.6692,-8.6785,-8.682,-8.6887,-8.7,-8.71,-8.7113,-8.7153,-8.7193,-8.7201,-8.7007,-8.6981,-8.6957,-8.6923,-8.7202,-8.7202,-8.7399,-8.7401,-8.7403]}]]